Location: Rosenheim
(47.8408°N, 12.2113°E)
Time: 01:36:39
(UTC+02:00)

Envisat - Visible Passes

Search period start: 25 May 2018 00:00
Search period end: 04 June 2018 00:00
Orbit: 764 x 766 km, 98.2° (Epoch: 24 May)

Date Brightness Start Highest point End Pass type
(mag) Time Alt. Az. Time Alt. Az. Time Alt. Az.
25 May 5.6 21:47:50 10° SW 21:51:07 17° W 21:54:25 10° NW visible
28 May 5.4 21:36:01 10° SW 21:39:50 21° W 21:43:40 10° NW visible
30 May 5.8 22:03:36 10° WSW 22:05:45 13° W 22:07:53 10° WNW visible
02 Jun 5.6 21:51:25 10° SW 21:54:26 16° W 21:57:28 10° NW visible
